Погода в Борисоглебке

Россия / Амурская область     50°02′16″N   128°36′40″E
темп.,
°C
ветер,
м/с
пор.,
м/с
влажн.,
%
обл.,
%
осадки,
мм/ч
давл.,
гПа
погр.,
м
12 апреля, пн
пн1200:00+1св61134100 0.0 1022554
03:000св71240100 0.3 1021615
06:00−3св81384100 0.3 1019519
09:00−4ссв91590100 2.6 1017626
12:00−4ссв91490100 4.8 1016822
15:00−5с91489100 7.7 1015906
18:00−5с91564100 0.2 1015954
21:00−5с71462100 0.2 1016586
13 апреля, вт
вт1300:00−7ссз51273100 0.0 1016340
03:00−10сз4128349 0.0 1015234
06:00−10зсз613825 0.0 1014337
09:00−6сз710755 0.0 10121037
12:00−3сз7957100 0.1 10101974
15:00−1сз61053100 0.2 10092224
18:00−3сз51056100 0.1 1008302
21:00−6сз4107383 0.1 1009154
14 апреля, ср
ср1400:00−9зсз498342 0.0 1009146
03:00−9зсз410865 0.0 1009167
06:00−10зсз411905 0.0 1009195
09:00−4сз577554 0.0 1010784
12:00−1сз4755100 0.1 10091695
15:00+1зсз4743100 0.1 10092047
18:00−1юз577397 0.0 1009285
21:00−5ююз239274 0.0 101151
15 апреля, чт
чт1500:00−6зюз35895 0.0 101271
03:00−8ююз22915 0.0 101214
06:00−8ююв348721 0.0 101254
09:00−1юв4768100 0.0 1011259
12:00+2вюв71157100 0.0 1009667
15:00+3вюв81454100 0.1 1005911
18:00+3в101664100 0.6 1002539
21:00+3вюв122257100 0.6 1000730
16 апреля, пт
пт1600:00+4юв101962100 0.1 998693
03:00+3юв91688100 1.0 997545
06:00+2юв81593100 0.7 997445
09:00+5ююв71167100 0.8 9981440
12:00+7ю7943100 0.1 9992128
15:00+8ю7941100 0.5 9992101
18:00+7ю564117 0.1 10001669
21:00+3ююв386525 0.1 1003162